Preview of NWS' New Version of Forecast
This preview is not operational and should not be used for support decisions.
Latest weather observations around

Auburn-Opelika Airport (KAUO)

Using International System of Units (Switch to English Units)
Date/ Time (CST) Wind (kph) Vis. (km) Weather Sky Cond. Temp (°C) Rel. Humidity Wind Chill (°C) Heat Index (°C) Pressure Precip. (cm)
Air Dwpt 6 hour Altimeter (hPa) Sea level (hPa) 1 hr 3 hr 6 hr
Max Min
Jan 16 15:56 W 9   Clear CLR 14 1     42%     1024.1 1026.9      
Jan 16 14:56 Calm   Clear CLR 14 1     39%     1024.1 1026.9      
Jan 16 13:56 Calm   Clear CLR 13 0     40%     1024.1 1026.6      
Jan 16 12:56 W 8   Clear CLR 12 1     45%     1024.7 1027.1      
Jan 16 11:56 NNW 8   Clear   11 0     48%     1025.7 1028.2      
Jan 16 10:56 WNW 9   Clear CLR 9 1     56% 7   1026.8 1029.2      
Jan 16 09:56 N 8   Clear   7 1     65% 5   1027.1 1029.9      
Jan 16 08:56 N 15   Clear CLR 4 3     89% 1   1026.4 1028.7      
Jan 16 07:56 NNW 11   Clear CLR 1        % -2   1026.1 1028.7      
Jan 16 06:56 NW 5   Clear CLR -2        % -4   1025.4 1028.2      
Jan 16 05:56 Calm   Clear CLR -2        %     1025.4 1027.9      
Jan 16 03:56 N 11   Clear CLR -1        % -5   1024.7 1027      
Jan 16 02:56 N 9   Clear CLR -1        % -4   1025.1 1027.6      
Jan 16 01:56 NNW 8   Clear CLR -1 -1     100% -4   1025.4 1027.8      
Jan 16 00:56 NNW 9   Clear CLR -1 -1     100% -4   1025.1 1027.4      
Jan 15 23:56 N 9   Clear CLR -1 -1     100% -4   1024.7 1027.4      
Jan 15 22:56 N 8   Clear CLR 1 1     100% -2   1025.4 1027.9      
Jan 15 21:56 N 9   Clear CLR 1 1     100% -2   1025.4 1028      
Jan 15 20:56 N 9   Clear CLR 1 1     100% -2   1025.7 1028.1      
Jan 15 19:56 NNW 9   Clear CLR 2 1     89% -1   1025.4 1027.7      
Jan 15 18:56 NNW 8   Clear CLR 3 1     85% 1   1025.4 1027.8      
Jan 15 17:56 Calm   Clear CLR 4 1     76%     1025.4 1028      
Jan 15 16:56 NNW 11   Clear CLR 6 0     67% 3   1025.1 1027.6      
Jan 15 15:56 WNW 13   Clear CLR 7 1     65% 4   1024.7 1027.1      
Jan 15 14:56 NW 8   Clear CLR 7 1     65% 5   1024.7 1027.3      
Jan 15 13:56 NNW 11   Mostly Clear FEW022 7 1     65% 4   1024.7 1027.4      
Jan 15 13:48 NNW 5   Mostly Clear FEW022 6 0     65% 5   1024.7        
Jan 15 12:56 WNW 15   Cloudy OVC018 5 0     70% 2   1025.4 1027.9      
Jan 15 11:56 NW 15   Cloudy OVC016 4 0     76% 0   1026.1 1028.8      
Jan 15 10:56 NNW 15   Cloudy OVC016 3 0     79% 0   1027.1 1029.9      
Jan 15 10:36 NNW 13   Clear   3 0     81% 0   1027.4        
Jan 15 09:56 NNW 11   Clear   3 0     79% 0   1027.4 1030.2      
Jan 15 09:22 NW 18   Cloudy OVC014 3 0     81% -1   1027.1        
Jan 15 08:56 NNW 13   Cloudy OVC016 3 0     82% -1   1026.8 1029.5      
Jan 15 07:56 NNW 15   Cloudy OVC016 3 0     82% -1   1026.1 1028.7      
Jan 15 06:56 NNW 15   Cloudy OVC018 3 -1     78% -1   1025.7 1028.5      
Jan 15 05:56 NNW 17   Cloudy OVC018 3 0     82% -1   1025.7 1028.2      
Jan 15 04:56 NW 15   Cloudy OVC018 3 0     79% 0   1024.7 1027.4      
Jan 15 03:56 NNW 11   Cloudy OVC020 3 0     79% 0   1025.1 1027.4      
Jan 15 02:56 NNW 11   Cloudy OVC020 3 1     85% 0   1025.4 1027.9      
Jan 15 02:35 NW 9   Cloudy SCT015 OVC020 3 1     87% 0   1025.4        
Jan 15 01:56 NNW 13   Cloudy OVC013 3 1     85% 0   1025.4 1027.9      
Jan 15 00:56 NW 15   Cloudy OVC013 3 2     89% 0   1025.4 1027.8      
Jan 15 00:52 NW 15   Cloudy OVC013 3 2     93% -1   1025.4        
Jan 14 23:56 N 13   Cloudy OVC015 3 2     89% 0   1025.4 1027.9      
Jan 14 22:56 NW 11   Cloudy OVC015 4 2     86% 2   1025.4 1028.1      
Jan 14 21:56 N 15   Cloudy OVC019 4 1     79% 1   1025.4 1028.1      
Jan 14 20:56 NNW 13   Cloudy OVC021 5 2     82% 2   1025.1 1027.6      
Jan 14 19:56 NW 13   Cloudy FEW019 OVC027 6 3     82% 3   1024.7 1027.3      
Jan 14 18:56 NNW 18   Cloudy OVC017 6 3     85% 2   1025.1 1027.4      
Jan 14 17:56 NW 18   Cloudy OVC022 6 3     82% 3   1025.1 1027.3      
Jan 14 17:14 NNW 17   Cloudy BKN024 BKN029 OVC034 7 3     76% 4   1024.7        
Jan 14 16:56 NW 18   Cloudy SCT020 OVC034 7 3     79% 3   1024.4 1026.9      
Jan 14 16:05 NNW 17   Cloudy FEW024 OVC034 8 3     71% 5   1024.1        
Jan 14 15:56 NNW 17   Cloudy BKN024 OVC033 8 3     73% 5   1024.1 1026.8      
Jan 14 14:56 NW 9   Cloudy BKN027 OVC032 8 3     71% 7   1024.1 1026.8      
Jan 14 13:56 NW 11   Cloudy OVC021 8 3     71% 6   1024.4 1027.2      
Jan 14 12:56 NNW 13   Cloudy OVC017 7 4     80% 5   1024.4 1027.2      
Jan 14 12:11 NW 17   Cloudy OVC015 7 3     76% 4   1025.1        
Jan 14 11:56 NNW 13   Cloudy OVC013 6 4     86% 3   1025.4 1028.2      
Jan 14 10:56 N 15   Cloudy OVC011 6 4     89% 3   1026.8 1029.1      
Jan 14 09:56 NW 17   Cloudy OVC011 5 4     93% 2   1027.4 1029.8      
Jan 14 08:56 NNW 15   Cloudy OVC009 5 4     96% 2   1026.8 1029.2      
Jan 14 06:56 NW 18   Cloudy OVC011 5 5     100% 1   1025.7 1028.4      
Jan 14 05:56 NNW 15   Cloudy OVC011 6 4     92% 3   1025.4 1028.2      
Jan 14 04:56 NW 15   Cloudy OVC011 6 5     96% 3   1025.1 1027.6      
Jan 14 03:56 NNW 13   Cloudy OVC011 6 5     96% 3   1024.7 1027.3      
Jan 14 02:56 N 15   Cloudy OVC013 6 5     96% 3   1024.7 1027.5      
Jan 14 01:56 NNW 21   Cloudy OVC011 6 6     97% 2   1024.7 1027.1      
Jan 14 00:56 NW 17   Cloudy OVC011 7 7     100% 4   1024.1 1026.5      
Jan 14 00:23 NNW 9   Cloudy OVC011 7 7     100% 5   1023.7        
Jan 13 23:56 NW 11   Cloudy OVC017 7 6     96% 4   1024.1 1026.4      
Jan 13 22:56 NW 15   Cloudy OVC021 7 7     100% 4   1024.1 1026.5      
Jan 13 21:56 NW 9   Mostly Cloudy BKN021 6 6     100% 4   1024.1 1026.8      
Jan 13 20:56 NW 18 16.09 Mostly Clear FEW015 7 6     93% 3   1024.1 1026.5      
Jan 13 19:56 NW 11 16.09 Cloudy FEW018 OVC031 8 7     93% 6   1023.7 1026.3      
Jan 13 19:06 WNW 9 16.09 Cloudy SCT020 OVC033 9 7     87% 8   1023.4        
Jan 13 18:56 WNW 9 16.09 Cloudy BKN020 OVC035 9 7     86% 7   1023.4 1026      
Jan 13 17:56 W 8 16.09 Cloudy BKN027 OVC036 9 6     83% 8   1023 1025.5      
Jan 13 17:53 W 9 16.09 Cloudy BKN025 OVC034 9 6     81% 8   1023        
Jan 13 16:56 WNW 8 16.09 Cloudy OVC034 9 6     77% 8   1022.4 1024.8      
May 15 09:56 ENE 9 16.09 Cloudy BKN021 BKN026 OVC034 24 19     76%   24 1016.6 1017.7   0  
May 14 22:56 SE 9 16.09 Clear CLR 23 18     71%   24 1015.9 1016.6      
May 12 01:56 Calm 16.09 Clear CLR 21 15     70%     1019.7 1020.5      
Notice The following observation data may not be complete
Jun 12 07:35   16.09 Mostly Cloudy BKN004          %              
Jun 11 03:56 ESE 11 16.09 Clear CLR 22 18     81%   22 1019.7 1020.4      
Jun 08 23:56 Calm 16.09 Clear   20 16     78%     1013.2 1014.4      
Jun 08 19:56 Calm 16.09 Mostly Cloudy BKN050 BKN065 24 16     60%   24 1012.2 1013.2      
Jun 08 14:56 Calm 16.09 Mostly Cloudy SCT055 BKN075 26 14     48%   25 1012.2 1013.4      
Jun 08 06:56 ENE 15 16.09 Clear CLR 19 14     75%     1012.5 1013.8      
Jun 08 01:56 E 9 16.09 Cloudy BKN020 BKN026 OVC036 20 18     90%     1011.2 1012.2      
Jun 07 11:56 NE 21 16.09 Cloudy OVC021 24 19     74%   25 1009.5 1010.6      
Jun 06 10:52 NE 9 16.09 Mostly Cloudy BKN014 BKN039 25 22     83%   26 1009.2        
Jun 06 10:19 N 8 16.09 Mostly Cloudy SCT011 BKN016 BKN024 24 22     89%   25 1009.8        
Jun 06 04:38 SSE 5 16.09 Cloudy SCT002 OVC100 21 21     100%     1009.8        
Jun 05 22:56 SE 8 16.09 Light Rain SCT026 BKN036 OVC085 23 22     96%   24 1011.2 1012.1 0    
Jun 05 16:56 SW 13 16.09 Partly Cloudy FEW019 SCT075 SCT100 26 22     77%   28 1010.2 1011.2